Year,Month,Day,Hour,Minute,Value (Times are PST for temperature in C)
2015,05,22,00,00,15.30
2015,05,22,00,01,15.30
2015,05,22,00,02,15.30
2015,05,22,00,03,15.30
2015,05,22,00,04,15.30
2015,05,22,00,05,15.30
2015,05,22,00,06,15.30
2015,05,22,00,07,15.20
2015,05,22,00,08,15.20
2015,05,22,00,09,15.20
2015,05,22,00,10,15.20
2015,05,22,00,11,15.10
2015,05,22,00,12,15.10
2015,05,22,00,13,15.10
2015,05,22,00,14,15.10
2015,05,22,00,15,15.00
2015,05,22,00,16,15.00
2015,05,22,00,17,15.00
2015,05,22,00,18,15.00
2015,05,22,00,19,15.00
2015,05,22,00,20,14.90
2015,05,22,00,21,14.90
2015,05,22,00,22,14.90
2015,05,22,00,23,14.90
2015,05,22,00,24,14.90
2015,05,22,00,25,14.90
2015,05,22,00,26,14.90
2015,05,22,00,27,14.80
2015,05,22,00,28,14.80
2015,05,22,00,29,14.80
2015,05,22,00,30,14.80
2015,05,22,00,31,14.80
2015,05,22,00,32,14.80
2015,05,22,00,33,14.80
2015,05,22,00,34,14.80
2015,05,22,00,35,14.70
2015,05,22,00,36,14.70
2015,05,22,00,37,14.70
2015,05,22,00,38,14.70
2015,05,22,00,39,14.70
2015,05,22,00,40,14.70
2015,05,22,00,41,14.60
2015,05,22,00,42,14.60
2015,05,22,00,43,14.60
2015,05,22,00,44,14.60
2015,05,22,00,45,14.60
2015,05,22,00,46,14.60
2015,05,22,00,47,14.60
2015,05,22,00,48,14.60
2015,05,22,00,49,14.60
2015,05,22,00,50,14.60
2015,05,22,00,51,14.60
2015,05,22,00,52,14.60
2015,05,22,00,53,14.60
2015,05,22,00,54,14.50
2015,05,22,00,55,14.50
2015,05,22,00,56,14.50
2015,05,22,00,57,14.50
2015,05,22,00,58,14.40
2015,05,22,00,59,14.40
2015,05,22,01,00,14.40
2015,05,22,01,01,14.40
2015,05,22,01,02,14.40
2015,05,22,01,03,14.40
2015,05,22,01,04,14.30
2015,05,22,01,05,14.30
2015,05,22,01,06,14.30
2015,05,22,01,07,14.30
2015,05,22,01,08,14.30
2015,05,22,01,09,14.30
2015,05,22,01,10,14.20
2015,05,22,01,11,14.20
2015,05,22,01,12,14.10
2015,05,22,01,13,14.10
2015,05,22,01,14,14.00
2015,05,22,01,15,13.90
2015,05,22,01,16,13.90
2015,05,22,01,17,13.80
2015,05,22,01,18,13.80
2015,05,22,01,19,13.80
2015,05,22,01,20,13.70
2015,05,22,01,21,13.70
2015,05,22,01,22,13.60
2015,05,22,01,23,13.60
2015,05,22,01,24,13.50
2015,05,22,01,25,13.50
2015,05,22,01,26,13.40
2015,05,22,01,27,13.40
2015,05,22,01,28,13.30
2015,05,22,01,29,13.30
2015,05,22,01,30,13.20
2015,05,22,01,31,13.10
2015,05,22,01,32,13.10
2015,05,22,01,33,13.00
2015,05,22,01,34,13.00
2015,05,22,01,35,12.90
2015,05,22,01,36,12.90
2015,05,22,01,37,12.80
2015,05,22,01,38,12.80
2015,05,22,01,39,12.80
2015,05,22,01,40,12.70
2015,05,22,01,41,12.70
2015,05,22,01,42,12.70
2015,05,22,01,43,12.70
2015,05,22,01,44,12.60
2015,05,22,01,45,12.60
2015,05,22,01,46,12.60
2015,05,22,01,47,12.60
2015,05,22,01,48,12.50
2015,05,22,01,49,12.50
2015,05,22,01,50,12.50
2015,05,22,01,51,12.50
2015,05,22,01,52,12.50
2015,05,22,01,53,12.50
2015,05,22,01,54,12.40
2015,05,22,01,55,12.40
2015,05,22,01,56,12.40
2015,05,22,01,57,12.40
2015,05,22,01,58,12.40
2015,05,22,01,59,12.30
2015,05,22,02,00,12.30
2015,05,22,02,01,12.30
2015,05,22,02,02,12.30
2015,05,22,02,03,12.30
2015,05,22,02,04,12.30
2015,05,22,02,05,12.30
2015,05,22,02,06,12.30
2015,05,22,02,07,12.30
2015,05,22,02,08,12.30
2015,05,22,02,09,12.30
2015,05,22,02,10,12.30
2015,05,22,02,11,12.30
2015,05,22,02,12,12.30
2015,05,22,02,13,12.30
2015,05,22,02,14,12.30
2015,05,22,02,15,12.30
2015,05,22,02,16,12.30
2015,05,22,02,17,12.30
2015,05,22,02,18,12.30
2015,05,22,02,19,12.30
2015,05,22,02,20,12.30
2015,05,22,02,21,12.20
2015,05,22,02,22,12.20
2015,05,22,02,23,12.20
2015,05,22,02,24,12.20
2015,05,22,02,25,12.20
2015,05,22,02,26,12.20
2015,05,22,02,27,12.10
2015,05,22,02,28,12.10
2015,05,22,02,29,12.10
2015,05,22,02,30,12.10
2015,05,22,02,31,12.00
2015,05,22,02,32,12.00
2015,05,22,02,33,11.90
2015,05,22,02,34,11.90
2015,05,22,02,35,11.90
2015,05,22,02,36,11.90
2015,05,22,02,37,11.80
2015,05,22,02,38,11.80
2015,05,22,02,39,11.80
2015,05,22,02,40,11.80
2015,05,22,02,41,11.80
2015,05,22,02,42,11.70
2015,05,22,02,43,11.70
2015,05,22,02,44,11.70
2015,05,22,02,45,11.70
2015,05,22,02,46,11.70
2015,05,22,02,47,11.60
2015,05,22,02,48,11.60
2015,05,22,02,49,11.60
2015,05,22,02,50,11.60
2015,05,22,02,51,11.60
2015,05,22,02,52,11.60
2015,05,22,02,53,11.60
2015,05,22,02,54,11.50
2015,05,22,02,55,11.50
2015,05,22,02,56,11.50
2015,05,22,02,57,11.40
2015,05,22,02,58,11.40
2015,05,22,02,59,11.40
2015,05,22,03,00,11.40
2015,05,22,03,01,11.30
2015,05,22,03,02,11.30
2015,05,22,03,03,11.30
2015,05,22,03,04,11.30
2015,05,22,03,05,11.30
2015,05,22,03,06,11.30
2015,05,22,03,07,11.20
2015,05,22,03,08,11.20
2015,05,22,03,09,11.20
2015,05,22,03,10,11.20
2015,05,22,03,11,11.20
2015,05,22,03,12,11.20
2015,05,22,03,13,11.20
2015,05,22,03,14,11.20
2015,05,22,03,15,11.20
2015,05,22,03,16,11.20
2015,05,22,03,17,11.20
2015,05,22,03,18,11.20
2015,05,22,03,19,11.20
2015,05,22,03,20,11.20
2015,05,22,03,21,11.20
2015,05,22,03,22,11.20
2015,05,22,03,23,11.20
2015,05,22,03,24,11.30
2015,05,22,03,25,11.30
2015,05,22,03,26,11.30
2015,05,22,03,27,11.30
2015,05,22,03,28,11.40
2015,05,22,03,29,11.40
2015,05,22,03,30,11.40
2015,05,22,03,31,11.40
2015,05,22,03,32,11.40
2015,05,22,03,33,11.40
2015,05,22,03,34,11.40
2015,05,22,03,35,11.50
2015,05,22,03,36,11.50
2015,05,22,03,37,11.50
2015,05,22,03,38,11.50
2015,05,22,03,39,11.60
2015,05,22,03,40,11.60
2015,05,22,03,41,11.60
2015,05,22,03,42,11.60
2015,05,22,03,43,11.60
2015,05,22,03,44,11.70
2015,05,22,03,45,11.70
2015,05,22,03,46,11.80
2015,05,22,03,47,11.80
2015,05,22,03,48,11.80
2015,05,22,03,49,11.80
2015,05,22,03,50,11.90
2015,05,22,03,51,11.90
2015,05,22,03,52,11.90
2015,05,22,03,53,11.90
2015,05,22,03,54,12.00
2015,05,22,03,55,12.00
2015,05,22,03,56,12.00
2015,05,22,03,57,12.00
2015,05,22,03,58,12.00
2015,05,22,03,59,12.00
2015,05,22,04,00,12.00
2015,05,22,04,01,12.00
2015,05,22,04,02,12.00
2015,05,22,04,03,12.00
2015,05,22,04,04,12.10
2015,05,22,04,05,12.10
2015,05,22,04,06,12.10
2015,05,22,04,07,12.10
2015,05,22,04,08,12.10
2015,05,22,04,09,12.10
2015,05,22,04,10,12.10
2015,05,22,04,11,12.10
2015,05,22,04,12,12.10
2015,05,22,04,13,12.10
2015,05,22,04,14,12.10
2015,05,22,04,15,12.10
2015,05,22,04,16,12.10
2015,05,22,04,17,12.10
2015,05,22,04,18,12.00
2015,05,22,04,19,12.00
2015,05,22,04,20,11.90
2015,05,22,04,21,11.90
2015,05,22,04,22,11.80
2015,05,22,04,23,11.70
2015,05,22,04,24,11.60
2015,05,22,04,25,11.60
2015,05,22,04,26,11.50
2015,05,22,04,27,11.40
2015,05,22,04,28,11.30
2015,05,22,04,29,11.30
2015,05,22,04,30,11.30
2015,05,22,04,31,11.20
2015,05,22,04,32,11.20
2015,05,22,04,33,11.20
2015,05,22,04,34,11.20
2015,05,22,04,35,11.10
2015,05,22,04,36,11.10
2015,05,22,04,37,11.10
2015,05,22,04,38,11.10
2015,05,22,04,39,11.10
2015,05,22,04,40,11.10
2015,05,22,04,41,11.10
2015,05,22,04,42,11.10
2015,05,22,04,43,11.10
2015,05,22,04,44,11.10
2015,05,22,04,45,11.10
2015,05,22,04,46,11.10
2015,05,22,04,47,11.10
2015,05,22,04,48,11.10
2015,05,22,04,49,11.10
2015,05,22,04,50,11.10
2015,05,22,04,51,11.10
2015,05,22,04,52,11.10
2015,05,22,04,53,11.10
2015,05,22,04,54,11.10
2015,05,22,04,55,11.10
2015,05,22,04,56,11.20
2015,05,22,04,57,11.20
2015,05,22,04,58,11.20
2015,05,22,04,59,11.20
2015,05,22,05,00,11.20
2015,05,22,05,01,11.20
2015,05,22,05,02,11.20
2015,05,22,05,03,11.20
2015,05,22,05,04,11.20
2015,05,22,05,05,11.20
2015,05,22,05,06,11.20
2015,05,22,05,07,11.20
2015,05,22,05,08,11.20
2015,05,22,05,09,11.20
2015,05,22,05,10,11.20
2015,05,22,05,11,11.20
2015,05,22,05,12,11.20
2015,05,22,05,13,11.20
2015,05,22,05,14,11.30
2015,05,22,05,15,11.30
2015,05,22,05,16,11.30
2015,05,22,05,17,11.30
2015,05,22,05,18,11.30
2015,05,22,05,19,11.30
2015,05,22,05,20,11.30
2015,05,22,05,21,11.30
2015,05,22,05,22,11.30
2015,05,22,05,23,11.30
2015,05,22,05,24,11.30
2015,05,22,05,25,11.40
2015,05,22,05,26,11.40
2015,05,22,05,27,11.40
2015,05,22,05,28,11.40
2015,05,22,05,29,11.40
2015,05,22,05,30,11.40
2015,05,22,05,31,11.40
2015,05,22,05,32,11.40
2015,05,22,05,33,11.40
2015,05,22,05,34,11.50
2015,05,22,05,35,11.50
2015,05,22,05,36,11.50
2015,05,22,05,37,11.50
2015,05,22,05,38,11.50
2015,05,22,05,39,11.50
2015,05,22,05,40,11.50
2015,05,22,05,41,11.50
2015,05,22,05,42,11.50
2015,05,22,05,43,11.60
2015,05,22,05,44,11.60
2015,05,22,05,45,11.60
2015,05,22,05,46,11.60
2015,05,22,05,47,11.60
2015,05,22,05,48,11.60
2015,05,22,05,49,11.60
2015,05,22,05,50,11.60
2015,05,22,05,51,11.70
2015,05,22,05,52,11.70
2015,05,22,05,53,11.70
2015,05,22,05,54,11.70
2015,05,22,05,55,11.70
2015,05,22,05,56,11.70
2015,05,22,05,57,11.70
2015,05,22,05,58,11.70
2015,05,22,05,59,11.70
2015,05,22,06,00,11.70
2015,05,22,06,01,11.70
2015,05,22,06,02,11.70
2015,05,22,06,03,11.80
2015,05,22,06,04,11.80
2015,05,22,06,05,11.80
2015,05,22,06,06,11.80
2015,05,22,06,07,11.80
2015,05,22,06,08,11.80
2015,05,22,06,09,11.80
2015,05,22,06,10,11.80
2015,05,22,06,11,11.80
2015,05,22,06,12,11.80
2015,05,22,06,13,11.80
2015,05,22,06,14,11.80
2015,05,22,06,15,11.80
2015,05,22,06,16,11.80
2015,05,22,06,17,11.80
2015,05,22,06,18,11.80
2015,05,22,06,19,11.80
2015,05,22,06,20,11.80
2015,05,22,06,21,11.90
2015,05,22,06,22,11.90
2015,05,22,06,23,11.90
2015,05,22,06,24,11.90
2015,05,22,06,25,11.90
2015,05,22,06,26,11.90
2015,05,22,06,27,11.90
2015,05,22,06,28,11.90
2015,05,22,06,29,11.90
2015,05,22,06,30,11.90
2015,05,22,06,31,11.90
2015,05,22,06,32,11.90
2015,05,22,06,33,11.90
2015,05,22,06,34,12.00
2015,05,22,06,35,12.00
2015,05,22,06,36,12.00
2015,05,22,06,37,12.00
2015,05,22,06,38,12.00
2015,05,22,06,39,12.10
2015,05,22,06,40,12.10
2015,05,22,06,41,12.10
2015,05,22,06,42,12.10
2015,05,22,06,43,12.10
2015,05,22,06,44,12.20
2015,05,22,06,45,12.20
2015,05,22,06,46,12.20
2015,05,22,06,47,12.20
2015,05,22,06,48,12.30
2015,05,22,06,49,12.30
2015,05,22,06,50,12.30
2015,05,22,06,51,12.30
2015,05,22,06,52,12.40
2015,05,22,06,53,12.40
2015,05,22,06,54,12.40
2015,05,22,06,55,12.40
2015,05,22,06,56,12.50
2015,05,22,06,57,12.50
2015,05,22,06,58,12.50
2015,05,22,06,59,12.60
2015,05,22,07,00,12.60
2015,05,22,07,01,12.60
2015,05,22,07,02,12.70
2015,05,22,07,03,12.70
2015,05,22,07,04,12.70
2015,05,22,07,05,12.70
2015,05,22,07,06,12.80
2015,05,22,07,07,12.80
2015,05,22,07,08,12.80
2015,05,22,07,09,12.80
2015,05,22,07,10,12.90
2015,05,22,07,11,12.90
2015,05,22,07,12,13.00
2015,05,22,07,13,13.00
2015,05,22,07,14,13.00
2015,05,22,07,15,13.10
2015,05,22,07,16,13.10
2015,05,22,07,17,13.20
2015,05,22,07,18,13.20
2015,05,22,07,19,13.20
2015,05,22,07,20,13.20
2015,05,22,07,21,13.30
2015,05,22,07,22,13.30
2015,05,22,07,23,13.30
2015,05,22,07,24,13.40
2015,05,22,07,25,13.40
2015,05,22,07,26,13.50
2015,05,22,07,27,13.60
2015,05,22,07,28,13.60
2015,05,22,07,29,13.70
2015,05,22,07,30,13.70
2015,05,22,07,31,13.80
2015,05,22,07,32,13.90
2015,05,22,07,33,14.00
2015,05,22,07,34,14.00
2015,05,22,07,35,14.10
2015,05,22,07,36,14.10
2015,05,22,07,37,14.10
2015,05,22,07,38,14.10
2015,05,22,07,39,14.10
2015,05,22,07,40,14.10
2015,05,22,07,41,14.10
2015,05,22,07,42,14.10
2015,05,22,07,43,14.10
2015,05,22,07,44,14.10
2015,05,22,07,45,14.20
2015,05,22,07,46,14.20
2015,05,22,07,47,14.20
2015,05,22,07,48,14.20
2015,05,22,07,49,14.20
2015,05,22,07,50,14.20
2015,05,22,07,51,14.20
2015,05,22,07,52,14.20
2015,05,22,07,53,14.20
2015,05,22,07,54,14.10
2015,05,22,07,55,14.10
2015,05,22,07,56,14.10
2015,05,22,07,57,14.10
2015,05,22,07,58,14.10
2015,05,22,07,59,14.10
2015,05,22,08,00,14.10
2015,05,22,08,01,14.10
2015,05,22,08,02,14.10
2015,05,22,08,03,14.10
2015,05,22,08,04,14.10
2015,05,22,08,05,14.10
2015,05,22,08,06,14.10
2015,05,22,08,07,14.10
2015,05,22,08,08,14.10
2015,05,22,08,09,14.20
2015,05,22,08,10,14.20
2015,05,22,08,11,14.20
2015,05,22,08,12,14.20
2015,05,22,08,13,14.20
2015,05,22,08,14,14.20
2015,05,22,08,15,14.20
2015,05,22,08,16,14.20
2015,05,22,08,17,14.20
2015,05,22,08,18,14.20
2015,05,22,08,19,14.20
2015,05,22,08,20,14.20
2015,05,22,08,21,14.30
2015,05,22,08,22,14.30
2015,05,22,08,23,14.30
2015,05,22,08,24,14.30
2015,05,22,08,25,14.30
2015,05,22,08,26,14.30
2015,05,22,08,27,14.40
2015,05,22,08,28,14.40
2015,05,22,08,29,14.50
2015,05,22,08,30,14.50
2015,05,22,08,31,14.60
2015,05,22,08,32,14.50
2015,05,22,08,33,14.50
2015,05,22,08,34,14.40
2015,05,22,08,35,14.40
2015,05,22,08,36,14.30
2015,05,22,08,37,14.30
2015,05,22,08,38,14.20
2015,05,22,08,39,14.20
2015,05,22,08,40,14.20
2015,05,22,08,41,14.20
2015,05,22,08,42,14.10
2015,05,22,08,43,14.10
2015,05,22,08,44,14.10
2015,05,22,08,45,14.20
2015,05,22,08,46,14.20
2015,05,22,08,47,14.20
2015,05,22,08,48,14.20
2015,05,22,08,49,14.20
2015,05,22,08,50,14.20
2015,05,22,08,51,14.20
2015,05,22,08,52,14.30
2015,05,22,08,53,14.30
2015,05,22,08,54,14.20
2015,05,22,08,55,14.20
2015,05,22,08,56,14.20
2015,05,22,08,57,14.20
2015,05,22,08,58,14.20
2015,05,22,08,59,14.20
2015,05,22,09,00,14.20
2015,05,22,09,01,14.20
2015,05,22,09,02,14.20
2015,05,22,09,03,14.10
2015,05,22,09,04,14.10
2015,05,22,09,05,14.20
2015,05,22,09,06,14.20
2015,05,22,09,07,14.30
2015,05,22,09,08,14.30
2015,05,22,09,09,14.30
2015,05,22,09,10,14.30
2015,05,22,09,11,14.30
2015,05,22,09,12,14.30
2015,05,22,09,13,14.30
2015,05,22,09,14,14.20
2015,05,22,09,15,14.20
2015,05,22,09,16,14.10
2015,05,22,09,17,14.20
2015,05,22,09,18,14.20
2015,05,22,09,19,14.20
2015,05,22,09,20,14.20
2015,05,22,09,21,14.20
2015,05,22,09,22,14.20
2015,05,22,09,23,14.20
2015,05,22,09,24,14.20
2015,05,22,09,25,14.20
2015,05,22,09,26,14.30
2015,05,22,09,27,14.40
2015,05,22,09,28,14.50
2015,05,22,09,29,14.60
2015,05,22,09,30,14.60
2015,05,22,09,31,14.70
2015,05,22,09,32,14.70
2015,05,22,09,33,14.70
2015,05,22,09,34,14.80
2015,05,22,09,35,14.80
2015,05,22,09,36,14.80
2015,05,22,09,37,14.80
2015,05,22,09,38,14.80
2015,05,22,09,39,14.80
2015,05,22,09,40,14.90
2015,05,22,09,41,14.90
2015,05,22,09,42,14.90
2015,05,22,09,43,14.90
2015,05,22,09,44,14.90
2015,05,22,09,45,15.00
2015,05,22,09,46,15.00
2015,05,22,09,47,15.10
2015,05,22,09,48,15.10
2015,05,22,09,49,15.20
2015,05,22,09,50,15.30
2015,05,22,09,51,15.30
2015,05,22,09,52,15.30
2015,05,22,09,53,15.30
2015,05,22,09,54,15.40
2015,05,22,09,55,15.40
2015,05,22,09,56,15.40
2015,05,22,09,57,15.30
2015,05,22,09,58,15.30
2015,05,22,09,59,15.30
2015,05,22,10,00,15.30
2015,05,22,10,01,15.30
2015,05,22,10,02,15.30
2015,05,22,10,03,15.30
2015,05,22,10,04,15.40
2015,05,22,10,05,15.40
2015,05,22,10,06,15.40
2015,05,22,10,07,15.50
2015,05,22,10,08,15.50
2015,05,22,10,09,15.60
2015,05,22,10,10,15.60
2015,05,22,10,11,15.60
2015,05,22,10,12,15.60
2015,05,22,10,13,15.70
2015,05,22,10,14,15.70
2015,05,22,10,15,15.70
2015,05,22,10,16,15.70
2015,05,22,10,17,15.80
2015,05,22,10,18,15.80
2015,05,22,10,19,15.80
2015,05,22,10,20,15.90
2015,05,22,10,21,16.00
2015,05,22,10,22,16.10
2015,05,22,10,23,16.20
2015,05,22,10,24,16.30
2015,05,22,10,25,16.40
2015,05,22,10,26,16.50
2015,05,22,10,27,16.60
2015,05,22,10,28,16.60
2015,05,22,10,29,16.60
2015,05,22,10,30,16.50
2015,05,22,10,31,16.50
2015,05,22,10,32,16.40
2015,05,22,10,33,16.40
2015,05,22,10,34,16.20
2015,05,22,10,35,16.10
2015,05,22,10,36,16.00
2015,05,22,10,37,15.90
2015,05,22,10,38,15.80
2015,05,22,10,39,15.70
2015,05,22,10,40,15.50
2015,05,22,10,41,15.40
2015,05,22,10,42,15.30
2015,05,22,10,43,15.10
2015,05,22,10,44,14.90
2015,05,22,10,45,14.80
2015,05,22,10,46,14.70
2015,05,22,10,47,14.80
2015,05,22,10,48,14.70
2015,05,22,10,49,14.70
2015,05,22,10,50,14.70
2015,05,22,10,51,14.70
2015,05,22,10,52,14.70
2015,05,22,10,53,14.70
2015,05,22,10,54,14.60
2015,05,22,10,55,14.60
2015,05,22,10,56,14.50
2015,05,22,10,57,14.50
2015,05,22,10,58,14.50
2015,05,22,10,59,14.50
2015,05,22,11,00,14.50
2015,05,22,11,01,14.40
2015,05,22,11,02,14.50
2015,05,22,11,03,14.50
2015,05,22,11,04,14.60
2015,05,22,11,05,14.70
2015,05,22,11,06,14.80
2015,05,22,11,07,14.80
2015,05,22,11,08,14.80
2015,05,22,11,09,14.80
2015,05,22,11,10,14.80
2015,05,22,11,11,14.90
2015,05,22,11,12,14.90
2015,05,22,11,13,14.90
2015,05,22,11,14,15.00
2015,05,22,11,15,15.10
2015,05,22,11,16,15.20
2015,05,22,11,17,15.30
2015,05,22,11,18,15.30
2015,05,22,11,19,15.40
2015,05,22,11,20,15.40
2015,05,22,11,21,15.50
2015,05,22,11,22,15.50
2015,05,22,11,23,15.50
2015,05,22,11,24,15.60
2015,05,22,11,25,15.60
2015,05,22,11,26,15.60
2015,05,22,11,27,15.70
2015,05,22,11,28,15.80
2015,05,22,11,29,15.90
2015,05,22,11,30,15.90
2015,05,22,11,31,15.90
2015,05,22,11,32,15.90
2015,05,22,11,33,15.90
2015,05,22,11,34,16.00
2015,05,22,11,35,16.00
2015,05,22,11,36,15.90
2015,05,22,11,37,15.80
2015,05,22,11,38,15.80
2015,05,22,11,39,15.70
2015,05,22,11,40,15.60
2015,05,22,11,41,15.60
2015,05,22,11,42,15.70
2015,05,22,11,43,15.60
2015,05,22,11,44,15.60
2015,05,22,11,45,15.60
2015,05,22,11,46,15.60
2015,05,22,11,47,15.70
2015,05,22,11,48,15.80
2015,05,22,11,49,15.80
2015,05,22,11,50,15.80
2015,05,22,11,51,15.60
2015,05,22,11,52,15.50
2015,05,22,11,53,15.40
2015,05,22,11,54,15.40
2015,05,22,11,55,15.40
2015,05,22,11,56,15.50
2015,05,22,11,57,15.40
2015,05,22,11,58,15.30
2015,05,22,11,59,15.30
2015,05,22,12,00,15.30
2015,05,22,12,01,15.40
2015,05,22,12,02,15.40
2015,05,22,12,03,15.50
2015,05,22,12,04,15.50
2015,05,22,12,05,15.50
2015,05,22,12,06,15.50
2015,05,22,12,07,15.60
2015,05,22,12,08,15.70
2015,05,22,12,09,15.80
2015,05,22,12,10,15.80
2015,05,22,12,11,15.80
2015,05,22,12,12,15.80
2015,05,22,12,13,15.70
2015,05,22,12,14,15.70
2015,05,22,12,15,15.80
2015,05,22,12,16,15.90
2015,05,22,12,17,15.90
2015,05,22,12,18,15.90
2015,05,22,12,19,15.90
2015,05,22,12,20,16.00
2015,05,22,12,21,15.90
2015,05,22,12,22,15.90
2015,05,22,12,23,15.90
2015,05,22,12,24,16.00
2015,05,22,12,25,16.10
2015,05,22,12,26,16.10
2015,05,22,12,27,16.10
2015,05,22,12,28,16.10
2015,05,22,12,29,16.10
2015,05,22,12,30,16.10
2015,05,22,12,31,16.10
2015,05,22,12,32,16.10
2015,05,22,12,33,16.10
2015,05,22,12,34,16.20
2015,05,22,12,35,16.30
2015,05,22,12,36,16.30
2015,05,22,12,37,16.40
2015,05,22,12,38,16.40
2015,05,22,12,39,16.40
2015,05,22,12,40,16.40
2015,05,22,12,41,16.30
2015,05,22,12,42,16.30
2015,05,22,12,43,16.40
2015,05,22,12,44,16.30
2015,05,22,12,45,16.30
2015,05,22,12,46,16.30
2015,05,22,12,47,16.30
2015,05,22,12,48,16.30
2015,05,22,12,49,16.40
2015,05,22,12,50,16.40
2015,05,22,12,51,16.50
2015,05,22,12,52,16.60
2015,05,22,12,53,16.60
2015,05,22,12,54,16.60
2015,05,22,12,55,16.50
2015,05,22,12,56,16.50
2015,05,22,12,57,16.50
2015,05,22,12,58,16.50
2015,05,22,12,59,16.50
2015,05,22,13,00,16.30
2015,05,22,13,01,16.20
2015,05,22,13,02,16.20
2015,05,22,13,03,16.20
2015,05,22,13,04,16.10
2015,05,22,13,05,16.10
2015,05,22,13,06,16.00
2015,05,22,13,07,16.00
2015,05,22,13,08,15.90
2015,05,22,13,09,15.90
2015,05,22,13,10,16.00
2015,05,22,13,11,16.00
2015,05,22,13,12,16.00
2015,05,22,13,13,16.00
2015,05,22,13,14,15.90
2015,05,22,13,15,15.90
2015,05,22,13,16,15.90
2015,05,22,13,17,15.90
2015,05,22,13,18,16.00
2015,05,22,13,19,16.00
2015,05,22,13,20,16.10
2015,05,22,13,21,16.10
2015,05,22,13,22,16.10
2015,05,22,13,23,16.10
2015,05,22,13,24,16.00
2015,05,22,13,25,16.00
2015,05,22,13,26,15.90
2015,05,22,13,27,15.90
2015,05,22,13,28,15.80
2015,05,22,13,29,15.80
2015,05,22,13,30,15.80
2015,05,22,13,31,15.70
2015,05,22,13,32,15.70
2015,05,22,13,33,15.70
2015,05,22,13,34,15.70
2015,05,22,13,35,15.70
2015,05,22,13,36,15.70
2015,05,22,13,37,15.70
2015,05,22,13,38,15.70
2015,05,22,13,39,15.80
2015,05,22,13,40,15.80
2015,05,22,13,41,15.90
2015,05,22,13,42,15.90
2015,05,22,13,43,15.90
2015,05,22,13,44,15.90
2015,05,22,13,45,15.80
2015,05,22,13,46,15.80
2015,05,22,13,47,15.80
2015,05,22,13,48,15.80
2015,05,22,13,49,15.70
2015,05,22,13,50,15.60
2015,05,22,13,51,15.60
2015,05,22,13,52,15.70
2015,05,22,13,53,15.70
2015,05,22,13,54,15.70
2015,05,22,13,55,15.60
2015,05,22,13,56,15.50
2015,05,22,13,57,15.50
2015,05,22,13,58,15.50
2015,05,22,13,59,15.40
2015,05,22,14,00,15.40
2015,05,22,14,01,15.40
2015,05,22,14,02,15.40
2015,05,22,14,03,15.40
2015,05,22,14,04,15.40
2015,05,22,14,05,15.40
2015,05,22,14,06,15.50
2015,05,22,14,07,15.60
2015,05,22,14,08,15.60
2015,05,22,14,09,15.60
2015,05,22,14,10,15.60
2015,05,22,14,11,15.70
2015,05,22,14,12,15.70
2015,05,22,14,13,15.70
2015,05,22,14,14,15.70
2015,05,22,14,15,15.70
2015,05,22,14,16,15.70
2015,05,22,14,17,15.60
2015,05,22,14,18,15.50
2015,05,22,14,19,15.50
2015,05,22,14,20,15.50
2015,05,22,14,21,15.50
2015,05,22,14,22,15.40
2015,05,22,14,23,15.40
2015,05,22,14,24,15.50
2015,05,22,14,25,15.50
2015,05,22,14,26,15.50
2015,05,22,14,27,15.50
2015,05,22,14,28,15.40
2015,05,22,14,29,15.40
2015,05,22,14,30,15.50
2015,05,22,14,31,15.50
2015,05,22,14,32,15.60
2015,05,22,14,33,15.60
2015,05,22,14,34,15.60
2015,05,22,14,35,15.60
2015,05,22,14,36,15.60
2015,05,22,14,37,15.60
2015,05,22,14,38,15.60
2015,05,22,14,39,15.60
2015,05,22,14,40,15.60
2015,05,22,14,41,15.60
2015,05,22,14,42,15.60
2015,05,22,14,43,15.60
2015,05,22,14,44,15.70
2015,05,22,14,45,15.80
2015,05,22,14,46,15.80
2015,05,22,14,47,15.80
2015,05,22,14,48,15.90
2015,05,22,14,49,16.00
2015,05,22,14,50,16.10
2015,05,22,14,51,16.10
2015,05,22,14,52,16.10
2015,05,22,14,53,16.00
2015,05,22,14,54,15.90
2015,05,22,14,55,15.90
2015,05,22,14,56,16.00
2015,05,22,14,57,16.10
2015,05,22,14,58,16.20
2015,05,22,14,59,16.20
2015,05,22,15,00,16.10
2015,05,22,15,01,16.00
2015,05,22,15,02,15.90
2015,05,22,15,03,15.80
2015,05,22,15,04,15.80
2015,05,22,15,05,15.80
2015,05,22,15,06,15.70
2015,05,22,15,07,15.70
2015,05,22,15,08,15.70
2015,05,22,15,09,15.70
2015,05,22,15,10,15.70
2015,05,22,15,11,15.80
2015,05,22,15,12,15.80
2015,05,22,15,13,15.90
2015,05,22,15,14,16.00
2015,05,22,15,15,16.00
2015,05,22,15,16,16.10
2015,05,22,15,17,16.10
2015,05,22,15,18,16.10
2015,05,22,15,19,16.10
2015,05,22,15,20,16.20
2015,05,22,15,21,16.30
2015,05,22,15,22,16.20
2015,05,22,15,23,16.10
2015,05,22,15,24,16.10
2015,05,22,15,25,16.10
2015,05,22,15,26,16.10
2015,05,22,15,27,16.00
2015,05,22,15,28,16.00
2015,05,22,15,29,16.10
2015,05,22,15,30,16.10
2015,05,22,15,31,16.00
2015,05,22,15,32,16.00
2015,05,22,15,33,15.90
2015,05,22,15,34,15.90
2015,05,22,15,35,15.90
2015,05,22,15,36,15.90
2015,05,22,15,37,15.90
2015,05,22,15,38,15.80
2015,05,22,15,39,15.80
2015,05,22,15,40,15.80
2015,05,22,15,41,15.80
2015,05,22,15,42,15.80
2015,05,22,15,43,15.80
2015,05,22,15,44,15.80
2015,05,22,15,45,15.80
2015,05,22,15,46,15.80
2015,05,22,15,47,15.80
2015,05,22,15,48,15.80
2015,05,22,15,49,15.70
2015,05,22,15,50,15.50
2015,05,22,15,51,15.40
2015,05,22,15,52,15.30
2015,05,22,15,53,15.30
2015,05,22,15,54,15.20
2015,05,22,15,55,15.20
2015,05,22,15,56,15.20
2015,05,22,15,57,15.20
2015,05,22,15,58,15.20
2015,05,22,15,59,15.20
2015,05,22,16,00,15.10
2015,05,22,16,01,15.10
2015,05,22,16,02,15.10
2015,05,22,16,03,15.10
2015,05,22,16,04,15.20
2015,05,22,16,05,15.30
2015,05,22,16,06,15.40
2015,05,22,16,07,15.50
2015,05,22,16,08,15.40
2015,05,22,16,09,15.40
2015,05,22,16,10,15.30
2015,05,22,16,11,15.30
2015,05,22,16,12,15.30
2015,05,22,16,13,15.30
2015,05,22,16,14,15.40
2015,05,22,16,15,15.50
2015,05,22,16,16,15.60
2015,05,22,16,17,15.80
2015,05,22,16,18,15.90
2015,05,22,16,19,16.00
2015,05,22,16,20,16.00
2015,05,22,16,21,15.80
2015,05,22,16,22,15.70
2015,05,22,16,23,15.40
2015,05,22,16,24,15.20
2015,05,22,16,25,14.90
2015,05,22,16,26,14.70
2015,05,22,16,27,14.60
2015,05,22,16,28,14.40
2015,05,22,16,29,14.30
2015,05,22,16,30,14.20
2015,05,22,16,31,14.10
2015,05,22,16,32,14.00
2015,05,22,16,33,13.90
2015,05,22,16,34,13.80
2015,05,22,16,35,13.80
2015,05,22,16,36,13.70
2015,05,22,16,37,13.70
2015,05,22,16,38,13.70
2015,05,22,16,39,13.80
2015,05,22,16,40,13.80
2015,05,22,16,41,13.80
2015,05,22,16,42,13.80
2015,05,22,16,43,13.70
2015,05,22,16,44,13.70
2015,05,22,16,45,13.70
2015,05,22,16,46,13.70
2015,05,22,16,47,13.70
2015,05,22,16,48,13.80
2015,05,22,16,49,13.80
2015,05,22,16,50,13.80
2015,05,22,16,51,13.70
2015,05,22,16,52,13.70
2015,05,22,16,53,13.60
2015,05,22,16,54,13.70
2015,05,22,16,55,13.60
2015,05,22,16,56,13.60
2015,05,22,16,57,13.60
2015,05,22,16,58,13.50
2015,05,22,16,59,13.50
2015,05,22,17,00,13.40
2015,05,22,17,01,13.30
2015,05,22,17,02,13.40
2015,05,22,17,03,13.40
2015,05,22,17,04,13.40
2015,05,22,17,05,13.30
2015,05,22,17,06,13.30
2015,05,22,17,07,13.30
2015,05,22,17,08,13.30
2015,05,22,17,09,13.30
2015,05,22,17,10,13.30
2015,05,22,17,11,13.30
2015,05,22,17,12,13.30
2015,05,22,17,13,13.30
2015,05,22,17,14,13.40
2015,05,22,17,15,13.40
2015,05,22,17,16,13.50
2015,05,22,17,17,13.60
2015,05,22,17,18,13.60
2015,05,22,17,19,13.60